Home > Weather > Santa Fe > Past weeks

Flag for USA Weather for the Past 2 Weeks in Santa Fe, New Mexico, USA

Now
43 °F

Light rain. Overcast.


Feels Like: 35 °F
Forecast: 33 / 43 °F
Wind: 17 mph from Southeast

Location: Santa Fe County Municipal Airport

Current Time: Apr 30, 2016 at 10:33:36 PM

Latest Report: Apr 30, 2016 at 9:53 PM


Visibility: 10 mi

Pressure: 29.82 "Hg (22.97 "Hg at 2132m altitude)

Humidity: 86%

Dew Point: 39 °F

Location of Santa FeLocation

Historic Weather in Santa Fe — Graph

°F

Santa Fe Temperature Yesterday

Maximum temperature yesterday: 53 °F (at 12:53 AM)
Minimum temperature yesterday: 36 °F (at 6:53 AM)
Average temperature yesterday: 45 °F

High & Low Weather Summary for the Past Weeks

 TemperatureHumidityPressure
High78 °F (Apr 22, 3:53 PM)100% (Apr 19, 7:53 AM)30.21 "Hg (Apr 19, 7:53 AM)
Low28 °F (Apr 19, 2:53 AM)6% (Apr 28, 2:53 PM)29.41 "Hg (Apr 25, 4:53 PM)
Average50 °F49%29.81 "Hg
* Reported Apr 15 7:53 PM — Apr 30 7:53 PM, Santa Fe, Weather by CustomWeather, © 2016

Note: Actual official high and low records may vary slightly from our data, if they occured in-between our weather recording intervals... More about our weather records

Advertising

Santa Fe Weather History for the Previous 24 Hours

Scroll right to see more
 ConditionsComfort  
Time TempWeatherWind HumidityBarometerVisibility
7:53 PM
Sat, Apr 30
52 °FMostly cloudy.3 mph43%29.72 "Hg10 mi
6:53 PM56 °FSunny.5 mph33%29.70 "Hg10 mi
5:53 PM57 °FScattered clouds.6 mph33%29.70 "Hg10 mi
4:53 PM56 °FBroken clouds.3 mph34%29.68 "Hg10 mi
3:53 PM57 °FScattered clouds.No wind34%29.69 "Hg10 mi
2:53 PM57 °FPartly sunny.13 mph36%29.70 "Hg10 mi
1:53 PM58 °FBroken clouds.8 mph31%29.69 "Hg10 mi
12:53 PM56 °FPartly sunny.13 mph37%29.71 "Hg10 mi
11:53 AM52 °FOvercast.3 mph57%29.75 "Hg10 mi
10:53 AM50 °FMostly cloudy.10 mph52%29.76 "Hg10 mi
9:53 AM51 °FSunny.9 mph52%29.75 "Hg10 mi
8:53 AM47 °FSunny.9 mph64%29.75 "Hg10 mi
7:53 AM43 °FSunny.10 mph76%29.75 "Hg10 mi
6:53 AM37 °FClear.5 mph89%29.74 "Hg10 mi
5:53 AM35 °FClear.No wind88%29.74 "Hg10 mi
4:53 AM37 °FClear.No wind86%29.73 "Hg10 mi
3:53 AM37 °FClear.8 mph89%29.72 "Hg10 mi
2:53 AM39 °FPassing clouds.13 mph86%29.74 "Hg10 mi
1:53 AM39 °FClear.10 mph86%29.74 "Hg10 mi
12:53 AM37 °FClear.6 mph82%29.75 "Hg10 mi
11:53 PM
Fri, Apr 29
37 °FClear.3 mph79%29.78 "Hg10 mi
10:53 PM39 °FPassing clouds.7 mph76%29.75 "Hg10 mi
Weather by CustomWeather, © 2016

See weather overviewHow to use our weather pages